SCP
0 0 0 0 0 0 0 0 0 0 0 0 0 0 0 0 0 0 0 0 0 0 0 0 0 0 0 0 0 0 0 0 0 0 0 0 0 0 0 0 0 0 0
0 0 0 0 0 0 0 0 0 0 0 0 0 0 0 0 0 0 0 0 0 0 0 0 0 0 0 0 0 0 0 0 0 0 0 0 0 0 0 0 0 0 0
0 0 0 0 0 0 0 0 0 0 0 0 0 0 0 0 0 0 0 0 0 0 0 0 0 0 0 0 0 0 0 0 0 0 0 0 0 0 0 0 0 0 0
0 0 0 0 0 0 0 0 0 0 0 0 0 0 0 0 0 0 0 0 0 0 0 0 0 0 0 0 0 0 0 0 0 0 0 0 0 0 0 0 0 0 0
0 0 0 0 0 0 0 0 0 0 0 0 0 0 0 0 0 0 0 0 0 0 0 0 0 0 0 0 0 0 0 0 0 0 0 0 0 0 0 0 0 0 0
0 0 0 0 0 0 0 0 0 0 0 0 0 0 0 0 0 0 0 0 0 0 0 0 0 0 0 0 0 0 0 0 0 0 0 0 0 0 0 0 0 0 0
0 0 0 0 0 0 0 0 0 0 0 0 0 0 0 0 0 0 0 0 0 0 0 0 0 0 0 0 0 0 0 0 0 0 0 0 0 0 0 0 0 0 0
0 0 0 0 0 0 0 0 0 0 0 0 0 0 0 0 0 0 0 0 0 0 0 0 0 0 0 0 0 0 0 0 0 0 0 0 0 0 0 0 0 0 0
0 0 0 0 0 0 0 0 0 0 0 0 0 0 0 0 0 0 0 0 0 0 0 0 0 0 0 0 0 0 0 0 0 0 0 0 0 0 0 0 0 0 0
0 0 0 0 0 0 0 0 0 0 0 0 0 0 0 0 0 0 0 0 0 0 0 0 0 0 0 0 0 0 0 0 0 0 0 0 0 0 0 0 0 0 0
0 0 0 0 0 0 0 0 0 0 0 0 0 0 0 0 0 0 0 0 0 0 0 0 0 0 0 0 0 0 0 0 0 0 0 0 0 0 0 0 0 0 0
0 0 0 0 0 0 0 0 0 0 0 0 0 0 0 0 0 0 0 0 0 0 0 0 0 0 0 0 0 0 0 0 0 0 0 0 0 0 0 0 0 0 0
0 0 0 0 0 0 0 0 0 0 0 0 0 0 0 0 0 0 0 0 0 0 0 0 0 0 0 0 0 0 0 0 0 0 0 0 0 0 0 0 0 0 0
0 0 0 0 0 0 0 0 0 0 0 0 0 0 0 0 0 0 0 0 0 0 0 0 0 0 0 0 0 0 0 0 0 0 0 0 0 0 0 0 0 0 0
0 0 0 0 0 0 0 0 0 0 0 0 0 0 0 0 0 0 0 0 0 0 0 0 0 0 0 0 0 0 0 0 0 0 0 0 0 0 0 0 0 0 0
0 0 0 0 0 0 0 0 0 0 0 0 0 0 0 0 0 0 0 0 0 0 0 0 0 0 0 0 0 0 0 0 0 0 0 0 0 0 0 0 0 0 0
0 0 0 0 0 0 0 0 0 0 0 0 0 0 0 0 0 0 0 0 0 0 0 0 0 0 0 0 0 0 0 0 0 0 0 0 0 0 0 0 0 0 0
0 0 0 0 0 0 0 0 0 0 0 0 0 0 0 0 0 0 0 0 0 0 0 0 0 0 0 0 0 0 0 0 0 0 0 0 0 0 0 0 0 0 0
0 0 0 0 0 0 0 0 0 0 0 0 0 0 0 0 0 0 0 0 0 0 0 0 0 0 0 0 0 0 0 0 0 0 0 0 0 0 0 0 0 0 0
0 -0 0 0 0 0 0 0 0 0 0 0 0 0 0 0 0 0 0 0 0 0 0 0 0 0 0 0 0 0 0 0 0 0 0 0 0 0 0 0 0 0 0
0 -0 -0 0 0 0 0 0 0 0 0 0 0 0 0 0 0 0 0 0 0 0 0 0 0 0 0 0 0 0 0 0 0 0 0 0 0 0 0 0 0 0 0
0 0 0 0 0 0 0 0 0 0 0 0 0 0 0 0 0 0 0 0 0 0 0 0 0 0 0 0 0 0 0 0 0 0 0 0 0 0 0 0 0 0 0
0 0 0 0 0 0 0 0 0 0 0 0 0 0 0 0 0 0 0 0 0 0 0 0 0 0 0 0 0 0 0 0 0 0 0 0 0 0 0 0 0 0 0
0 0 0 0 0 0 0 0 0 0 0 0 0 0 0 0 0 0 0 0 0 0 0 0 0 0 0 0 0 0 0 0 0 0 0 0 0 0 0 0 0 0 0
0 0 0 0 0 0 0 0 0 0 0 0 0 0 0 0 0 0 0 0 0 0 0 0 0 0 0 0 0 0 0 0 0 0 0 0 0 0 0 0 0 0 0
0 0 0 0 0 0 0 0 0 0 0 0 0 0 0 0 0 0 0 0 0 0 0 0 0 0 0 0 0 0 0 0 0 0 0 0 0 0 0 0 0 0 0
Wind_Speed
5 5 5 5 5 5 5 5 5 5 5 5 5 5 5 4 4 4 4 4 4 4 3 4 4 3 3 2 3 3 4 4 6 5 4 5 6 6 5 6 6 6 5
4 4 5 5 5 5 5 5 5 6 5 5 5 5 5 5 5 5 5 5 5 5 5 5 4 3 4 3 3 4 4 4 5 7 6 5 6 6 6 7 5 5 5
3 4 4 4 5 5 5 5 5 5 5 5 6 6 6 6 6 6 6 6 6 6 6 6 5 5 5 4 4 4 4 4 5 6 6 5 5 4 6 6 6 5 5
3 4 4 4 5 5 5 5 5 5 5 6 6 6 6 6 6 6 6 6 6 6 6 6 6 6 6 6 5 5 4 5 5 5 5 5 4 4 5 5 6 5 5
3 4 4 4 4 4 5 5 5 5 5 5 6 6 6 6 6 6 6 7 7 7 6 7 7 7 7 6 5 5 5 5 4 5 5 5 4 4 4 4 6 6 6
4 4 3 3 4 4 4 4 4 5 5 5 6 6 6 5 7 9 8 7 7 7 7 7 6 7 9 10 10 8 7 6 6 5 5 6 6 5 5 5 5 6 5
4 4 3 4 4 4 4 4 5 5 5 5 6 6 6 6 8 9 10 7 7 7 7 7 5 5 8 7 8 10 9 10 9 7 7 7 6 5 6 6 6 6 6
4 4 4 4 4 4 4 5 5 5 5 5 5 6 6 6 8 9 9 8 7 7 7 7 7 7 6 7 7 7 7 7 7 7 7 7 6 5 5 6 7 7 7
4 4 4 4 4 4 5 5 5 5 5 5 5 6 7 7 8 8 8 6 6 7 7 7 8 8 8 9 8 8 7 6 6 7 7 7 7 7 5 4 4 5 5
4 4 4 4 5 5 5 5 5 5 5 5 5 6 6 7 7 8 8 5 6 6 6 7 9 10 9 10 9 8 8 6 5 5 6 6 6 5 6 5 4 4 4
4 4 4 4 5 5 5 5 5 5 5 5 6 6 6 6 6 8 8 6 6 6 6 5 5 9 11 11 10 8 8 6 5 5 5 4 4 4 4 4 4 4 5
4 4 4 4 4 4 5 5 5 5 5 5 5 5 4 5 6 7 9 10 8 7 6 5 5 8 10 11 9 9 9 8 5 4 4 4 4 3 3 3 4 5 5
4 5 4 4 4 4 4 5 4 4 4 4 4 5 4 4 5 8 10 10 11 8 6 7 7 8 9 8 9 10 8 6 5 5 5 4 4 3 3 3 4 4 6
5 5 4 4 4 4 4 4 4 5 5 5 5 5 5 4 4 4 4 5 7 7 6 6 8 9 8 7 7 6 6 5 5 5 5 4 3 3 3 3 3 3 4
6 5 5 5 4 4 4 4 6 6 6 6 5 5 5 6 6 7 6 5 5 5 5 4 5 5 5 5 5 5 4 5 5 4 4 4 3 3 3 3 3 3 4
5 5 4 4 4 4 4 5 7 9 9 11 11 10 8 10 10 11 11 11 10 10 7 6 6 6 6 6 5 5 5 5 5 5 5 4 4 4 4 3 3 4 5
6 6 4 4 4 4 4 5 5 5 8 11 12 12 12 12 12 12 11 11 11 10 7 6 6 6 6 6 5 5 5 5 4 5 5 5 4 4 4 4 4 4 4
7 6 6 5 5 5 5 5 5 5 5 5 7 10 11 12 12 12 10 8 7 7 6 6 6 6 6 6 6 5 5 5 5 5 5 5 4 4 4 4 4 4 4
6 5 5 5 5 5 5 5 5 6 6 6 5 6 8 9 10 11 9 6 6 6 6 6 6 5 5 5 5 5 5 5 5 5 5 5 5 5 5 5 4 6 5
6 8 7 5 5 5 5 6 6 6 6 6 6 6 4 5 5 6 6 6 6 6 6 6 5 5 6 5 5 5 5 5 5 5 5 5 5 5 5 5 5 4 4
5 6 7 6 6 6 6 6 6 6 6 7 7 7 8 6 6 7 6 6 6 6 6 6 6 6 6 5 5 6 6 5 5 5 5 5 5 5 4 4 4 4 4
5 5 5 6 6 6 6 6 6 7 7 8 7 7 10 7 6 7 6 6 6 6 5 5 5 5 5 5 5 6 6 5 5 5 5 5 5 5 4 4 4 4 4
6 6 6 6 6 8 7 7 7 7 7 7 7 6 6 6 7 7 7 6 6 5 5 5 5 5 4 4 5 5 6 6 5 5 5 5 5 4 4 4 5 5 4
6 7 7 6 6 6 7 7 7 7 7 7 7 7 7 7 7 7 7 6 5 5 5 5 5 6 6 5 4 4 4 4 5 5 7 5 5 4 4 4 4 5 4
6 6 6 6 6 7 7 7 7 7 7 7 7 7 7 7 7 6 6 5 6 5 6 5 4 5 7 7 6 5 6 8 7 5 5 5 5 5 4 4 4 4 4
6 7 7 6 7 7 7 7 7 7 7 7 7 7 7 6 6 6 5 5 5 5 5 4 5 6 6 6 7 7 8 9 9 9 5 4 5 4 4 4 4 4 4
Wind_Direction
225 228 232 233 233 237 241 244 245 246 242 242 240 238 237 237 237 238 242 244 246 249 246 249 251 253 252 249 251 256 259 264 272 285 289 301 304 306 309 310 310 310 310
230 231 234 236 234 236 241 244 243 244 241 239 238 238 237 236 236 239 242 242 244 246 247 247 249 246 248 250 247 250 257 260 270 282 290 296 299 306 310 312 313 311 307
235 236 239 239 239 242 245 245 244 243 242 238 235 238 239 238 237 239 242 243 243 247 248 247 247 245 247 245 246 251 256 260 262 273 285 294 296 303 310 308 309 310 309
241 239 243 246 248 250 251 247 244 241 242 242 240 241 242 241 239 239 239 242 243 244 245 245 246 245 249 251 249 251 254 257 259 266 275 284 289 301 305 310 313 316 311
246 247 252 256 254 253 251 248 245 241 242 243 244 242 241 240 238 237 237 240 244 245 244 244 245 246 251 253 254 254 253 255 258 264 272 280 285 299 305 312 307 312 307
251 256 263 263 258 254 253 251 248 247 245 243 244 245 243 241 240 240 243 243 244 247 249 247 244 240 240 242 246 252 257 260 262 263 269 273 285 294 301 301 306 311 307
254 259 260 260 259 259 257 254 252 252 249 248 249 250 250 249 245 245 242 248 247 246 247 247 243 240 239 242 240 241 244 247 254 264 269 274 284 292 295 293 292 295 294
256 259 262 262 262 263 258 257 257 254 249 249 250 252 256 254 248 248 246 245 247 247 245 245 247 246 237 237 242 245 248 249 248 251 261 273 282 285 278 283 292 294 289
256 261 263 263 264 262 259 259 258 255 252 250 252 252 254 256 247 248 247 247 247 249 247 245 244 247 241 234 240 245 249 252 245 247 261 270 276 277 278 278 281 289 293
260 264 265 262 262 263 263 262 259 255 255 256 254 254 253 258 253 248 245 249 252 253 250 245 241 245 245 236 238 242 247 250 247 245 247 249 254 257 259 263 273 278 287
266 264 263 260 259 263 265 259 256 253 256 255 257 256 253 254 254 250 247 247 251 254 253 251 243 237 242 240 241 246 247 251 251 248 250 251 252 253 253 254 258 262 268
259 261 263 264 262 258 258 257 252 249 253 256 257 261 256 250 248 250 249 250 252 253 254 254 247 237 241 244 243 242 243 243 244 242 247 250 251 253 254 257 257 259 262
254 258 263 264 258 250 248 250 250 246 249 255 257 261 264 260 253 252 254 256 253 253 254 254 251 245 246 247 243 242 239 235 233 236 243 249 251 256 258 259 257 258 261
254 260 261 260 260 253 246 240 243 245 248 251 256 260 265 263 258 253 252 254 254 253 253 248 245 244 239 241 242 237 234 233 233 239 246 249 243 237 242 249 260 267 269
252 254 255 253 256 259 254 250 248 249 248 254 256 256 261 264 259 260 264 261 257 254 255 243 238 236 233 230 228 228 227 226 231 235 238 239 238 238 243 244 253 259 261
251 252 252 253 256 258 263 265 244 248 258 256 258 260 260 261 270 267 264 263 262 258 252 240 237 234 237 235 230 226 224 225 226 226 229 232 235 237 241 240 243 252 263
246 252 253 253 255 257 258 264 274 262 249 253 255 258 260 267 269 268 266 265 260 253 246 241 237 234 234 234 233 230 229 226 222 223 226 227 229 233 237 241 243 252 262
244 244 244 249 249 251 253 256 260 268 275 271 256 256 263 268 271 268 263 262 254 241 241 242 240 236 233 232 231 228 227 222 218 220 224 223 223 226 232 238 240 248 262
242 241 239 243 245 248 250 251 254 257 261 270 274 267 261 268 271 263 254 247 247 243 241 242 239 235 233 232 229 225 222 220 218 217 220 220 219 223 232 236 241 249 256
243 238 239 244 245 245 245 246 249 252 256 260 264 268 269 265 263 257 248 247 247 246 244 243 239 234 232 229 226 222 220 218 214 216 218 217 217 221 230 234 239 246 251
245 240 233 240 243 244 245 247 249 252 255 259 262 263 261 260 258 257 254 250 248 247 245 243 240 235 230 225 221 218 217 218 215 214 215 216 215 220 227 231 236 243 253
242 244 240 241 244 244 245 246 248 250 254 259 265 265 260 257 255 255 254 252 250 249 244 241 240 236 228 221 217 215 214 215 213 210 212 212 213 218 221 225 233 242 248
241 242 242 243 244 248 250 248 247 249 253 257 261 263 259 254 255 254 255 256 253 249 244 238 238 234 225 218 215 213 214 214 211 205 206 209 211 213 215 223 231 241 248
242 242 244 246 246 247 248 249 249 251 253 256 258 258 258 256 255 255 255 255 251 247 241 235 232 228 220 216 214 213 215 211 203 203 204 206 208 211 214 223 233 241 250
244 244 245 246 247 249 251 252 253 253 253 254 256 259 260 258 256 255 253 250 246 242 236 233 229 223 219 217 216 213 209 208 207 198 194 202 207 209 214 223 232 241 249
247 247 247 247 248 249 250 252 254 254 255 256 257 259 259 256 254 253 251 246 241 237 233 230 225 222 218 218 217 215 213 213 211 204 197 198 203 208 210 221 230 239 248